Time,TemperatureF,DewpointF,PressureIn,WindDirection,WindDirectionDegrees,WindSpeedMPH,WindSpeedGustMPH,Humidity,HourlyPrecipIn,Conditions,Clouds,dailyrainin,SoftwareType,DateUTC
2013-05-18 00:06:00,66.7,63.0,29.97,ESE,119,0.0,1.0,89,0.00,,,0.00,weatherlink.com 1.10,2013-05-18 05:06:00,
2013-05-18 00:21:00,66.5,64.0,29.96,ESE,119,0.0,3.0,90,0.00,,,0.00,weatherlink.com 1.10,2013-05-18 05:21:00,
2013-05-18 00:38:00,66.8,64.0,29.96,SE,129,1.0,4.0,90,0.00,,,0.00,weatherlink.com 1.10,2013-05-18 05:38:00,
2013-05-18 00:51:00,66.6,63.0,29.96,SSE,158,3.0,4.0,89,0.00,,,0.00,weatherlink.com 1.10,2013-05-18 05:51:00,
2013-05-18 01:06:00,66.5,64.0,29.96,SSE,158,1.0,5.0,90,0.00,,,0.00,weatherlink.com 1.10,2013-05-18 06:06:00,
2013-05-18 01:21:00,65.9,63.0,29.96,SE,145,2.0,4.0,91,0.00,,,0.00,weatherlink.com 1.10,2013-05-18 06:21:00,
2013-05-18 01:37:00,65.8,64.0,29.95,SSE,161,3.0,6.0,92,0.00,,,0.00,weatherlink.com 1.10,2013-05-18 06:37:00,
2013-05-18 01:52:00,65.5,63.0,29.96,SE,124,1.0,4.0,92,0.00,,,0.00,weatherlink.com 1.10,2013-05-18 06:52:00,
2013-05-18 02:07:00,65.0,63.0,29.96,SSE,148,1.0,4.0,93,0.00,,,0.00,weatherlink.com 1.10,2013-05-18 07:07:00,
2013-05-18 02:22:00,64.6,63.0,29.96,SSE,147,2.0,3.0,93,0.00,,,0.00,weatherlink.com 1.10,2013-05-18 07:22:00,
2013-05-18 02:37:00,64.3,63.0,29.96,SSE,152,1.0,3.0,94,0.00,,,0.00,weatherlink.com 1.10,2013-05-18 07:37:00,
2013-05-18 02:52:00,64.2,63.0,29.97,SE,142,0.0,3.0,94,0.00,,,0.00,weatherlink.com 1.10,2013-05-18 07:52:00,
2013-05-18 03:07:00,63.8,62.0,29.97,SE,142,0.0,0.0,94,0.00,,,0.00,weatherlink.com 1.10,2013-05-18 08:07:00,
2013-05-18 03:22:00,63.6,62.0,29.97,SSE,161,0.0,3.0,95,0.00,,,0.00,weatherlink.com 1.10,2013-05-18 08:22:00,
2013-05-18 03:37:00,63.2,62.0,29.97,SSE,161,0.0,1.0,95,0.00,,,0.00,weatherlink.com 1.10,2013-05-18 08:37:00,
2013-05-18 03:52:00,62.8,61.0,29.97,SSE,161,1.0,3.0,95,0.00,,,0.00,weatherlink.com 1.10,2013-05-18 08:52:00,
2013-05-18 04:07:00,62.9,62.0,29.97,SE,129,1.0,5.0,96,0.00,,,0.00,weatherlink.com 1.10,2013-05-18 09:07:00,
2013-05-18 04:22:00,62.8,62.0,29.97,SE,140,0.0,3.0,96,0.00,,,0.00,weatherlink.com 1.10,2013-05-18 09:22:00,
2013-05-18 04:37:00,62.9,62.0,29.97,SE,132,1.0,3.0,96,0.00,,,0.00,weatherlink.com 1.10,2013-05-18 09:37:00,
2013-05-18 04:52:00,63.1,62.0,29.97,South,169,2.0,5.0,96,0.01,,,0.01,weatherlink.com 1.10,2013-05-18 09:52:00,
2013-05-18 05:07:00,63.0,62.0,29.97,SSE,154,1.0,4.0,96,0.01,,,0.01,weatherlink.com 1.10,2013-05-18 10:07:00,
2013-05-18 05:22:00,62.8,62.0,29.97,SE,136,0.0,3.0,96,0.01,,,0.01,weatherlink.com 1.10,2013-05-18 10:22:00,
2013-05-18 05:37:00,62.4,61.0,29.97,SE,136,0.0,2.0,96,0.01,,,0.01,weatherlink.com 1.10,2013-05-18 10:37:00,
2013-05-18 05:52:00,62.1,61.0,29.97,SE,136,1.0,2.0,96,0.00,,,0.01,weatherlink.com 1.10,2013-05-18 10:52:00,
2013-05-18 06:07:00,62.1,61.0,29.97,SE,137,3.0,3.0,97,0.00,,,0.01,weatherlink.com 1.10,2013-05-18 11:07:00,
2013-05-18 06:22:00,62.2,61.0,29.98,SE,130,0.0,2.0,97,0.00,,,0.01,weatherlink.com 1.10,2013-05-18 11:22:00,
2013-05-18 06:37:00,62.5,62.0,29.98,SE,138,1.0,4.0,97,0.00,,,0.01,weatherlink.com 1.10,2013-05-18 11:37:00,
2013-05-18 06:53:00,63.1,62.0,29.98,South,169,4.0,6.0,97,0.00,,,0.01,weatherlink.com 1.10,2013-05-18 11:53:00,
2013-05-18 07:07:00,63.7,63.0,29.98,SSE,163,3.0,6.0,96,0.00,,,0.01,weatherlink.com 1.10,2013-05-18 12:07:00,
2013-05-18 07:22:00,64.3,63.0,29.98,SE,134,3.0,7.0,95,0.00,,,0.01,weatherlink.com 1.10,2013-05-18 12:22:00,
2013-05-18 07:37:00,65.0,63.0,29.99,South,170,3.0,7.0,94,0.00,,,0.01,weatherlink.com 1.10,2013-05-18 12:37:00,
2013-05-18 07:52:00,66.1,64.0,29.99,SE,133,6.0,6.0,93,0.00,,,0.01,weatherlink.com 1.10,2013-05-18 12:52:00,
2013-05-18 08:07:00,67.1,65.0,30.00,South,177,2.0,6.0,91,0.00,,,0.01,weatherlink.com 1.10,2013-05-18 13:07:00,
2013-05-18 08:22:00,67.9,65.0,30.00,SSE,161,5.0,9.0,89,0.00,,,0.01,weatherlink.com 1.10,2013-05-18 13:22:00,
2013-05-18 08:37:00,68.4,64.0,30.00,SE,138,4.0,9.0,87,0.00,,,0.01,weatherlink.com 1.10,2013-05-18 13:37:00,
2013-05-18 08:52:00,69.2,65.0,30.00,South,187,5.0,7.0,86,0.00,,,0.01,weatherlink.com 1.10,2013-05-18 13:52:00,
2013-05-18 09:07:00,69.5,65.0,30.01,SSE,164,4.0,8.0,85,0.00,,,0.01,weatherlink.com 1.10,2013-05-18 14:07:00,
2013-05-18 09:22:00,70.5,66.0,30.01,SSE,153,8.0,9.0,84,0.00,,,0.01,weatherlink.com 1.10,2013-05-18 14:22:00,
2013-05-18 09:37:00,70.3,65.0,30.01,SSE,155,9.0,9.0,82,0.00,,,0.01,weatherlink.com 1.10,2013-05-18 14:37:00,
2013-05-18 09:52:00,71.2,65.0,30.00,ESE,109,2.0,8.0,81,0.00,,,0.01,weatherlink.com 1.10,2013-05-18 14:52:00,
2013-05-18 10:07:00,72.3,65.0,30.00,SE,134,5.0,6.0,78,0.00,,,0.01,weatherlink.com 1.10,2013-05-18 15:07:00,
2013-05-18 10:22:00,73.6,65.0,30.00,South,188,6.0,8.0,75,0.00,,,0.01,weatherlink.com 1.10,2013-05-18 15:22:00,
2013-05-18 10:38:00,74.3,65.0,30.00,South,178,5.0,11.0,73,0.00,,,0.01,weatherlink.com 1.10,2013-05-18 15:38:00,
2013-05-18 10:53:00,73.7,65.0,30.00,ESE,116,3.0,9.0,74,0.00,,,0.01,weatherlink.com 1.10,2013-05-18 15:53:00,
2013-05-18 11:08:00,73.8,65.0,30.00,SSE,167,10.0,11.0,73,0.00,,,0.01,weatherlink.com 1.10,2013-05-18 16:08:00,
2013-05-18 11:23:00,75.1,65.0,29.99,SE,126,2.0,10.0,70,0.00,,,0.01,weatherlink.com 1.10,2013-05-18 16:23:00,
2013-05-18 11:38:00,76.4,65.0,29.99,SSW,192,7.0,9.0,67,0.00,,,0.01,weatherlink.com 1.10,2013-05-18 16:38:00,
2013-05-18 11:53:00,76.9,65.0,29.98,SSE,150,3.0,10.0,66,0.00,,,0.01,weatherlink.com 1.10,2013-05-18 16:53:00,
2013-05-18 12:08:00,76.6,64.0,29.98,South,191,5.0,13.0,66,0.00,,,0.01,weatherlink.com 1.10,2013-05-18 17:08:00,
2013-05-18 12:23:00,78.0,63.0,29.98,SE,132,7.0,12.0,61,0.00,,,0.01,weatherlink.com 1.10,2013-05-18 17:23:00,
2013-05-18 12:38:00,77.8,63.0,29.97,SSE,164,3.0,8.0,60,0.00,,,0.01,weatherlink.com 1.10,2013-05-18 17:38:00,
2013-05-18 12:53:00,78.0,63.0,29.96,SSE,163,8.0,8.0,61,0.00,,,0.01,weatherlink.com 1.10,2013-05-18 17:53:00,
2013-05-18 13:08:00,77.6,63.0,29.96,SE,131,2.0,8.0,60,0.00,,,0.01,weatherlink.com 1.10,2013-05-18 18:08:00,
2013-05-18 13:23:00,78.3,63.0,29.95,South,172,6.0,11.0,60,0.00,,,0.01,weatherlink.com 1.10,2013-05-18 18:23:00,
2013-05-18 13:38:00,78.7,63.0,29.95,ESE,112,3.0,12.0,58,0.00,,,0.01,weatherlink.com 1.10,2013-05-18 18:38:00,
2013-05-18 13:53:00,78.6,62.0,29.94,SE,131,2.0,10.0,58,0.00,,,0.01,weatherlink.com 1.10,2013-05-18 18:53:00,
2013-05-18 14:09:00,79.4,62.0,29.93,SE,134,1.0,10.0,56,0.00,,,0.01,weatherlink.com 1.10,2013-05-18 19:09:00,
2013-05-18 14:23:00,80.3,63.0,29.93,SE,136,6.0,10.0,55,0.00,,,0.01,weatherlink.com 1.10,2013-05-18 19:23:00,
2013-05-18 14:38:00,80.5,62.0,29.93,South,169,5.0,7.0,53,0.00,,,0.01,weatherlink.com 1.10,2013-05-18 19:38:00,
2013-05-18 14:53:00,80.2,63.0,29.93,SE,134,1.0,8.0,55,0.00,,,0.01,weatherlink.com 1.10,2013-05-18 19:53:00,
2013-05-18 15:08:00,81.6,62.0,29.93,South,186,10.0,10.0,52,0.00,,,0.01,weatherlink.com 1.10,2013-05-18 20:08:00,
2013-05-18 15:23:00,81.3,62.0,29.92,ESE,108,8.0,10.0,52,0.00,,,0.01,weatherlink.com 1.10,2013-05-18 20:23:00,
2013-05-18 15:38:00,79.7,61.0,29.92,SSE,161,3.0,10.0,53,0.00,,,0.01,weatherlink.com 1.10,2013-05-18 20:38:00,
2013-05-18 15:53:00,79.2,61.0,29.92,SSW,199,7.0,9.0,54,0.00,,,0.01,weatherlink.com 1.10,2013-05-18 20:53:00,
2013-05-18 16:08:00,80.2,63.0,29.93,South,184,4.0,6.0,55,0.00,,,0.01,weatherlink.com 1.10,2013-05-18 21:08:00,
2013-05-18 16:23:00,80.2,61.0,29.92,SSE,161,4.0,9.0,53,0.00,,,0.01,weatherlink.com 1.10,2013-05-18 21:23:00,
2013-05-18 16:38:00,80.5,62.0,29.92,South,182,3.0,7.0,54,0.00,,,0.01,weatherlink.com 1.10,2013-05-18 21:38:00,
2013-05-18 16:53:00,80.3,63.0,29.92,SE,131,1.0,8.0,55,0.00,,,0.01,weatherlink.com 1.10,2013-05-18 21:53:00,
2013-05-18 17:08:00,80.2,62.0,29.92,SE,141,3.0,10.0,54,0.00,,,0.01,weatherlink.com 1.10,2013-05-18 22:08:00,
2013-05-18 17:23:00,81.3,62.0,29.91,SE,131,7.0,10.0,52,0.00,,,0.01,weatherlink.com 1.10,2013-05-18 22:23:00,
2013-05-18 17:39:00,80.9,62.0,29.91,SE,146,2.0,10.0,52,0.00,,,0.01,weatherlink.com 1.10,2013-05-18 22:39:00,
2013-05-18 17:53:00,81.1,62.0,29.91,SE,132,6.0,9.0,52,0.00,,,0.01,weatherlink.com 1.10,2013-05-18 22:53:00,
2013-05-18 18:08:00,80.9,61.0,29.91,SSE,153,8.0,10.0,51,0.00,,,0.01,weatherlink.com 1.10,2013-05-18 23:08:00,
2013-05-18 18:23:00,80.6,62.0,29.90,South,175,7.0,9.0,53,0.00,,,0.01,weatherlink.com 1.10,2013-05-18 23:23:00,
2013-05-18 18:38:00,80.3,62.0,29.90,SSE,151,3.0,9.0,53,0.00,,,0.01,weatherlink.com 1.10,2013-05-18 23:38:00,
2013-05-18 18:53:00,79.6,61.0,29.89,SE,138,2.0,9.0,54,0.00,,,0.01,weatherlink.com 1.10,2013-05-18 23:53:00,
2013-05-18 19:08:00,79.1,62.0,29.90,SSE,148,3.0,10.0,56,0.00,,,0.01,weatherlink.com 1.10,2013-05-19 00:08:00,
2013-05-18 19:23:00,78.5,62.0,29.90,SE,128,1.0,6.0,58,0.00,,,0.01,weatherlink.com 1.10,2013-05-19 00:23:00,
2013-05-18 19:38:00,77.7,62.0,29.90,SE,137,2.0,7.0,59,0.00,,,0.01,weatherlink.com 1.10,2013-05-19 00:38:00,
2013-05-18 19:53:00,76.7,63.0,29.90,SE,140,2.0,5.0,62,0.00,,,0.01,weatherlink.com 1.10,2013-05-19 00:53:00,
2013-05-18 20:08:00,75.5,62.0,29.90,SE,133,0.0,2.0,64,0.00,,,0.01,weatherlink.com 1.10,2013-05-19 01:08:00,
2013-05-18 20:23:00,74.2,63.0,29.89,SE,133,1.0,1.0,68,0.00,,,0.01,weatherlink.com 1.10,2013-05-19 01:23:00,
2013-05-18 20:38:00,72.9,63.0,29.89,SE,133,0.0,1.0,70,0.00,,,0.01,weatherlink.com 1.10,2013-05-19 01:38:00,
2013-05-18 20:53:00,72.1,62.0,29.89,SE,133,0.0,2.0,71,0.00,,,0.01,weatherlink.com 1.10,2013-05-19 01:53:00,
2013-05-18 21:08:00,71.0,62.0,29.89,SE,132,0.0,3.0,74,0.00,,,0.01,weatherlink.com 1.10,2013-05-19 02:08:00,
2013-05-18 21:24:00,70.8,62.0,29.89,SE,131,0.0,2.0,74,0.00,,,0.01,weatherlink.com 1.10,2013-05-19 02:24:00,
2013-05-18 21:38:00,70.2,62.0,29.89,SE,132,1.0,3.0,75,0.00,,,0.01,weatherlink.com 1.10,2013-05-19 02:38:00,
2013-05-18 21:53:00,70.3,62.0,29.89,ESE,122,3.0,3.0,75,0.00,,,0.01,weatherlink.com 1.10,2013-05-19 02:53:00,
2013-05-18 22:08:00,69.7,62.0,29.89,ESE,113,0.0,5.0,76,0.00,,,0.01,weatherlink.com 1.10,2013-05-19 03:08:00,
2013-05-18 22:23:00,69.9,62.0,29.88,SE,128,0.0,5.0,76,0.00,,,0.01,weatherlink.com 1.10,2013-05-19 03:23:00,
2013-05-18 22:39:00,69.8,62.0,29.88,SSE,153,1.0,5.0,76,0.00,,,0.01,weatherlink.com 1.10,2013-05-19 03:39:00,
2013-05-18 22:54:00,69.9,62.0,29.88,SE,135,6.0,7.0,76,0.00,,,0.01,weatherlink.com 1.10,2013-05-19 03:54:00,
2013-05-18 23:09:00,69.4,62.0,29.88,SE,146,2.0,6.0,78,0.00,,,0.01,weatherlink.com 1.10,2013-05-19 04:09:00,
2013-05-18 23:24:00,69.1,62.0,29.88,SSE,162,2.0,5.0,79,0.00,,,0.01,weatherlink.com 1.10,2013-05-19 04:24:00,
2013-05-18 23:39:00,68.6,63.0,29.89,SSE,147,2.0,4.0,81,0.00,,,0.01,weatherlink.com 1.10,2013-05-19 04:39:00,
2013-05-18 23:54:00,68.7,63.0,29.89,ESE,123,2.0,5.0,81,0.00,,,0.01,weatherlink.com 1.10,2013-05-19 04:54:00,